When you browse on this site, cookies collect data to enhance your experience and personalize the content and advertising you see.
Visit our Privacy Policy to learn more. By continuing to use the site, you agree to this use of cookies and data.
  • In Hungary
  • List of Countries
  • For 7 days
  • Water Temperature
  • Satellite Maps
  • Weather Map
  • News
  • Weather Widgets
  • user-avatar
    Login

    Hourly Weather Carteret

    Today, 26 March, Tuesday

    Time Temperature Precipitation Wind Pressure Humidity
    00:00 +4°C° 0 mm 4 mps 764 mmHg 37%
    01:00 +2°C° 0 mm 5 mps 765 mmHg 36%
    02:00 +1°C° 0 mm 5 mps 765 mmHg 35%
    03:00 +1°C° 0 mm 5 mps 765 mmHg 35%
    04:00 0°C° 0 mm 5 mps 765 mmHg 34%
    05:00 0°C° 0 mm 5 mps 765 mmHg 35%
    06:00 -1°C° 0 mm 5 mps 766 mmHg 36%
    07:00 -1°C° 0 mm 5 mps 766 mmHg 37%
    08:00 0°C° 0 mm 5 mps 766 mmHg 33%
    09:00 +2°C° 0 mm 5 mps 767 mmHg 30%
    10:00 +3°C° 0 mm 5 mps 767 mmHg 27%
    11:00 +5°C° 0 mm 4 mps 767 mmHg 25%
    12:00 +6°C° 0 mm 4 mps 767 mmHg 23%
    13:00 +7°C° 0 mm 4 mps 767 mmHg 20%
    14:00 +7°C° 0 mm 4 mps 767 mmHg 20%
    15:00 +9°C° 0 mm 3 mps 767 mmHg 20%
    16:00 +9°C° 0 mm 3 mps 767 mmHg 20%
    17:00 +7°C° 0 mm 4 mps 768 mmHg 22%
    18:00 +6°C° 0 mm 4 mps 768 mmHg 24%
    19:00 +6°C° 0 mm 4 mps 769 mmHg 26%
    20:00 +5°C° 0 mm 4 mps 769 mmHg 29%
    21:00 +4°C° 0 mm 4 mps 770 mmHg 31%
    22:00 +3°C° 0 mm 4 mps 771 mmHg 34%
    23:00 +3°C° 0 mm 4 mps 771 mmHg 35%

    Tomorrow, 27 March, Wednesday

    Time Temperature Precipitation Wind Pressure Humidity
    00:00 +1°C° 0 mm 4 mps 771 mmHg 37%
    01:00 +1°C° 0 mm 3 mps 772 mmHg 39%
    02:00 +1°C° 0 mm 3 mps 772 mmHg 39%
    03:00 +1°C° 0 mm 3 mps 772 mmHg 39%
    04:00 0°C° 0 mm 3 mps 772 mmHg 39%
    05:00 0°C° 0 mm 3 mps 773 mmHg 39%
    06:00 +2°C° 0 mm 2 mps 773 mmHg 39%
    07:00 +2°C° 0 mm 2 mps 774 mmHg 39%
    08:00 +3°C° 0 mm 2 mps 774 mmHg 35%
    09:00 +5°C° 0 mm 2 mps 774 mmHg 30%
    10:00 +7°C° 0 mm 1 mps 774 mmHg 26%
    11:00 +7°C° 0 mm 2 mps 774 mmHg 24%
    12:00 +8°C° 0 mm 2 mps 774 mmHg 23%
    13:00 +9°C° 0 mm 2 mps 774 mmHg 21%
    14:00 +9°C° 0 mm 2 mps 773 mmHg 23%
    15:00 +9°C° 0 mm 3 mps 773 mmHg 24%
    16:00 +9°C° 0 mm 3 mps 772 mmHg 26%
    17:00 +8°C° 0 mm 3 mps 773 mmHg 32%
    18:00 +5°C° 0 mm 3 mps 773 mmHg 38%
    19:00 +4°C° 0 mm 4 mps 773 mmHg 44%
    20:00 +4°C° 0 mm 3 mps 774 mmHg 47%
    21:00 +3°C° 0 mm 3 mps 774 mmHg 51%
    22:00 +3°C° 0 mm 3 mps 774 mmHg 55%
    23:00 +3°C° 0 mm 3 mps 774 mmHg 57%

    Day after tomorrow, 28 March, Thursday

    Time Temperature Precipitation Wind Pressure Humidity
    00:00 +2°C° 0 mm 3 mps 774 mmHg 59%
    01:00 +3°C° 0 mm 2 mps 773 mmHg 61%
    02:00 +3°C° 0 mm 2 mps 773 mmHg 63%
    03:00 +3°C° 0 mm 2 mps 773 mmHg 65%
    04:00 +3°C° 0 mm 2 mps 773 mmHg 67%
    05:00 +3°C° 0 mm 2 mps 773 mmHg 66%
    06:00 +3°C° 0 mm 2 mps 773 mmHg 65%
    07:00 +3°C° 0 mm 2 mps 773 mmHg 64%
    08:00 +4°C° 0 mm 3 mps 773 mmHg 57%
    09:00 +7°C° 0 mm 3 mps 772 mmHg 50%
    10:00 +8°C° 0 mm 4 mps 772 mmHg 43%
    11:00 +10°C° 0 mm 4 mps 771 mmHg 40%
    12:00 +12°C° 0 mm 4 mps 771 mmHg 38%
    13:00 +13°C° 0 mm 5 mps 770 mmHg 35%
    14:00 +13°C° 0 mm 5 mps 769 mmHg 35%
    15:00 +14°C° 0 mm 5 mps 768 mmHg 35%
    16:00 +14°C° 0 mm 5 mps 767 mmHg 36%
    17:00 +13°C° 0 mm 5 mps 767 mmHg 41%
    18:00 +12°C° 0 mm 5 mps 767 mmHg 47%
    19:00 +10°C° 0 mm 5 mps 767 mmHg 52%
    20:00 +10°C° 0 mm 5 mps 767 mmHg 54%
    21:00 +10°C° 0 mm 5 mps 767 mmHg 56%
    22:00 +9°C° 0 mm 5 mps 767 mmHg 58%
    23:00 +9°C° 0 mm 5 mps 766 mmHg 59%

    29 March, Friday

    Time Temperature Precipitation Wind Pressure Humidity
    00:00 +9°C° 0 mm 5 mps 766 mmHg 59%
    01:00 +9°C° 0 mm 5 mps 766 mmHg 60%
    02:00 +9°C° 0 mm 5 mps 765 mmHg 62%
    03:00 +10°C° 0 mm 4 mps 765 mmHg 65%
    04:00 +8°C° 0 mm 4 mps 765 mmHg 67%
    05:00 +8°C° 0 mm 4 mps 765 mmHg 67%
    06:00 +9°C° 0 mm 3 mps 765 mmHg 68%
    07:00 +9°C° 0 mm 3 mps 765 mmHg 68%
    08:00 +11°C° 0 mm 3 mps 765 mmHg 65%
    09:00 +13°C° 0 mm 2 mps 765 mmHg 61%
    10:00 +15°C° 0 mm 2 mps 766 mmHg 58%
    11:00 +16°C° 0 mm 2 mps 765 mmHg 57%
    12:00 +17°C° 0 mm 2 mps 765 mmHg 55%
    13:00 +18°C° 0 mm 2 mps 765 mmHg 54%
    14:00 +19°C° 0 mm 2 mps 765 mmHg 54%
    15:00 +19°C° 0 mm 2 mps 764 mmHg 55%
    16:00 +19°C° 0 mm 3 mps 764 mmHg 55%
    17:00 +18°C° 0 mm 2 mps 764 mmHg 59%
    18:00 +17°C° 0 mm 2 mps 765 mmHg 64%
    19:00 +17°C° 0 mm 2 mps 765 mmHg 68%
    20:00 +16°C° 0 mm 3 mps 765 mmHg 72%
    21:00 +14°C° 0 mm 3 mps 765 mmHg 75%
    22:00 +13°C° 0 mm 3 mps 765 mmHg 79%
    23:00 +13°C° 0 mm 3 mps 765 mmHg 80%

    30 March, Saturday

    Time Temperature Precipitation Wind Pressure Humidity
    00:00 +12°C° 0 mm 3 mps 764 mmHg 80%
    01:00 +13°C° 0 mm 2 mps 764 mmHg 81%
    02:00 +12°C° 0 mm 3 mps 764 mmHg 78%
    03:00 +12°C° 0 mm 3 mps 763 mmHg 75%
    04:00 +12°C° 0 mm 3 mps 763 mmHg 72%
    05:00 +12°C° 0 mm 3 mps 763 mmHg 71%
    06:00 +12°C° 0 mm 3 mps 763 mmHg 70%
    07:00 +12°C° 0 mm 4 mps 763 mmHg 69%
    08:00 +14°C° 0 mm 4 mps 763 mmHg 63%
    09:00 +15°C° 0 mm 5 mps 763 mmHg 56%
    10:00 +17°C° 0 mm 5 mps 763 mmHg 50%
    11:00 +20°C° 0 mm 5 mps 762 mmHg 45%
    12:00 +21°C° 0 mm 6 mps 762 mmHg 41%
    13:00 +22°C° 0 mm 6 mps 761 mmHg 36%
    14:00 +22°C° 0 mm 6 mps 760 mmHg 37%
    15:00 +22°C° 0 mm 7 mps 760 mmHg 38%
    16:00 +22°C° 0 mm 7 mps 759 mmHg 39%
    17:00 +21°C° 0 mm 6 mps 759 mmHg 43%
    18:00 +19°C° 0 mm 6 mps 759 mmHg 48%
    19:00 +17°C° 0 mm 6 mps 758 mmHg 52%
    20:00 +16°C° 0 mm 6 mps 758 mmHg 56%
    21:00 +16°C° 0 mm 6 mps 758 mmHg 59%
    22:00 +15°C° 0 mm 6 mps 758 mmHg 63%
    23:00 +15°C° 0 mm 6 mps 757 mmHg 65%

    31 March, Sunday

    Time Temperature Precipitation Wind Pressure Humidity
    00:00 +15°C° 0 mm 6 mps 757 mmHg 66%
    01:00 +15°C° 0 mm 6 mps 756 mmHg 68%
    02:00 +15°C° 0.1 mm 5 mps 756 mmHg 69%
    03:00 +15°C° 0.1 mm 5 mps 756 mmHg 71%
    04:00 +14°C° 0.1 mm 5 mps 756 mmHg 73%
    05:00 +14°C° 0.1 mm 5 mps 757 mmHg 74%
    06:00 +14°C° 0.1 mm 4 mps 757 mmHg 75%
    07:00 +14°C° 0.1 mm 4 mps 758 mmHg 76%
    08:00 +13°C° 0 mm 5 mps 759 mmHg 68%
    09:00 +12°C° 0 mm 5 mps 759 mmHg 59%
    10:00 +10°C° 0 mm 6 mps 760 mmHg 50%
    11:00 +10°C° 0 mm 6 mps 760 mmHg 46%
    12:00 +10°C° 0 mm 6 mps 761 mmHg 42%
    13:00 +10°C° 0 mm 7 mps 761 mmHg 38%
    14:00 +10°C° 0 mm 7 mps 761 mmHg 36%
    15:00 +9°C° 0 mm 7 mps 762 mmHg 34%
    16:00 +8°C° 0 mm 7 mps 762 mmHg 32%
    17:00 +6°C° 0 mm 7 mps 763 mmHg 34%
    18:00 +4°C° 0 mm 7 mps 764 mmHg 35%
    19:00 +3°C° 0 mm 7 mps 765 mmHg 36%
    20:00 +2°C° 0 mm 7 mps 766 mmHg 37%
    21:00 0°C° 0 mm 7 mps 767 mmHg 39%
    22:00 -1°C° 0 mm 6 mps 768 mmHg 40%
    23:00 -1°C° 0 mm 6 mps 769 mmHg 42%
    Show more